Regional Weather Roundup
Issued by NWS

Home | Current Version | Previous Version | Graphics & Text | Print | Product List | Glossary On
Versions: 1 2 3 4 5 6 7 8 9 10 11 12 13 14 15 16 17 18 19 20 21 22 23 24 25 26 27
000
ASUS45 KSLC 291310
RWRUT

UTAH REGIONAL WEATHER ROUNDUP
NATIONAL WEATHER SERVICE SALT LAKE CITY UT
700 AM MDT MON AUG 29 2016

UTZ001>011-023>025-291400-

NORTHERN UTAH

CITY           SKY/WX    TMP DP  RH WIND       PRES   REMARKS
BRIGHAM CITY     N/A     55  37  50 CALM      30.22R
HILL AFB       CLEAR     60  32  35 E21G29    30.23R
LOGAN          CLEAR     51  42  71 CALM      30.26R
OGDEN          CLEAR     61  33  35 S8        30.21R
PROVO AIRPORT  CLEAR     57  36  44 E6        30.24R
SALT LAKE CITY PTCLDY    63  38  39 S3        30.20R
VERNAL         CLEAR     49  42  77 W3        30.28R
WENDOVER       PTCLDY    61  32  33 SW3       30.22R
HEBER CITY     CLEAR     43  34  70 CALM      30.33R
WEST JORDAN    CLEAR     58  34  40 CALM      30.23R

$$

UTZ012>022-026-027-291400-

SOUTHERN/CENTRAL UTAH

CITY           SKY/WX    TMP DP  RH WIND       PRES   REMARKS
BLANDING       MOCLDY    56  42  60 E5        30.38R
BRYCE CANYON   CLEAR     40  37  89 W6        30.42R
CEDAR CITY     CLEAR     51  39  63 NE6       30.28R
MILFORD        CLEAR     52  38  58 SW8       30.25R
MOAB/CYNLANDS  CLEAR     62  43  49 CALM      30.22R
PRICE          CLEAR     56  36  47 NE6       30.30R
ST GEORGE      SUNNY     66  54  63 SE6       30.13S

$$

REGIONAL REPORTS     COLORADO/ARIZONA

CITY           SKY/WX    TMP DP  RH WIND       PRES   REMARKS
CRAIG, CO      CLOUDY    40  35  83 CALM      30.37R
GRAND JUNCTION CLOUDY    56  45  66 E9        30.27S
RIFLE          CLOUDY    50  48  93 E6        30.33R
MONTROSE       CLOUDY    52  44  74 SE3       30.35R
CORTEZ         CLOUDY    47  43  86 CALM      30.33R
PAGE, AZ       CLEAR     63  47  55 CALM      30.18R
GRAND CANYON   CLEAR     46  43  89 E3        30.34R
KINGMAN        CLEAR     62  54  74 CALM      30.11R
FLAGSTAFF      CLEAR     41  40  96 CALM      30.35R

$$

REGIONAL REPORTS    NEVADA/IDAHO/WYOMING

CITY           SKY/WX    TMP DP  RH WIND       PRES   REMARKS
LAS VEGAS, NV  CLEAR     78  47  33 S3        30.00R
ELY            PTCLDY    45  28  51 S12       30.35R
ELKO           CLEAR     50  30  46 E6        30.26R
POCATELLO, ID  CLEAR     48  35  60 CALM      30.24S
BURLEY         PTCLDY    47  42  83 CALM      30.20R
EVANSTON, WY   CLOUDY    55  29  36 E6        30.41S
ROCK SPRINGS   CLOUDY    53  27  36 W5        30.39R

$$




USA.gov is the U.S. government's official web portal to all federal, state and local government web resources and services.